Location: Lane
(33.5226°N, 79.8788°W)
Time: 18:37:08
(UTC+00:00)

Courier 1B Rocket - Pass Details

Date: 11 October 2022
Orbit: 920 x 1202 km, 28.3° (Epoch: 01 December)

Event Time Altitude Azimuth Distance (km) Brightness Sun altitude
Rises 22:08:31 0° 258° (WSW) 4,026 10.8 7.8°
Reaches altitude 10° 22:11:27 10° 255° (WSW) 3,032 11.2 7.2°
Maximum altitude 22:18:44 57° 178° (S) 1,261 5.8 5.7°
Drops below altitude 10° 22:25:32 10° 101° (ESE) 2,831 6.9 4.3°
Sets 22:28:11 0° 98° (E) 3,741 7.4 3.8°
